Hauptseite
METAR-TAF:

METAR-TAF

Flughäfen :

Militärflugplatz Deelen

Arnheim, Niederlande

Breite: 52-04N, Länge: 005-53E, Höhe: 48 m

Beobachtung

Neuester Wetterbericht von vor 29 Minuten, um 18:25 UTC
Wind 3 kt aus Südwest, variierte zwischen Süd und Nord/Nordwest
Temperatur 18°C
Luftfeuchtigkeit 64%
Luftdruck 1015 hPa
Sichtweite 10 km oder mehr
Durchbrochene Bewölkung in der Höhe von 10000 ft
Durchbrochene Bewölkung in der Höhe von 28000 ft

METAR: EHDL 231825Z AUTO 22003KT 190V330 9999 BKN100 BKN280 18/11 Q1015 BLU

Zeit: 20:54 (18:54 UTC)


TAF: fehlend

Wetterbeobachtungen und Prognosen von mehr als 4000 Flughäfen (METAR und TAF Bericht).

Die verfügbaren Stationen werden durch gelbe und rote Markierungen auf der Karte dargestellt.

Führen Sie die Maus auf sie, um den Namen der Station zu sehen.

Darauf klicken, um die Beobachtung von Wetterbeobachtungen und Prognosen zu sehen.

Um die Karte zu ändern : klicken Sie auf den grünen Tasten mit einem schwarzen Kreuz Zum Vergrößern, auf den grünen Button mit einem Gedankenstrich zu verkleinern, oder auf die grünen Pfeile für benachbarte Karten.


METAR-TAF: